Location: Beetenbrück
(52.8113°N, 9.5946°E)
Time: 22:29:11
(UTC+00:00)

Helios 1A - Pass Details

Date: 14 April 2026
Orbit: 541 x 559 km, 98.2° (Epoch: 12 May)

Event Time Altitude Azimuth Distance (km) Brightness Sun altitude
Rises 21:15:38 0° 20° (NNE) 2,755 6.9 -22.0°
Reaches altitude 10° 21:17:54 10° 28° (NNE) 1,852 5.8 -22.2°
Enters shadow 21:20:38 33° 62° (ENE) 958 3.9 -22.4°
